Temperature
14 15 15 15 15 15 15 15 15 14 14 14 14 14 14 14 13 13 13 13 13 13 13 13 13 13 13 13 12 12 12 12 12 12 12 12 11 11 11 11 11 11 11
14 14 14 15 14 14 14 14 14 14 14 14 14 14 14 14 14 14 13 13 13 13 13 13 13 13 13 12 12 12 12 12 11 11 11 11 11 11 11 11 11 11 11
14 14 14 14 14 14 14 14 14 13 13 13 13 13 13 14 14 14 13 13 13 13 13 13 13 13 13 12 12 12 11 11 11 11 11 11 11 11 11 11 10 10 10
14 14 14 14 14 14 14 14 14 13 13 13 13 13 13 13 13 13 13 13 13 13 13 13 13 12 12 12 12 11 11 11 11 11 11 11 10 10 10 10 10 10 10
14 14 14 14 14 14 14 14 13 13 13 13 13 13 13 13 13 13 13 13 13 13 13 12 12 12 12 12 11 11 11 11 10 10 10 10 10 10 10 10 10 10 10
14 14 14 14 14 14 14 13 13 13 13 13 13 13 13 13 13 13 13 13 13 13 12 12 12 12 11 11 11 11 10 10 10 10 10 10 10 10 10 9 9 9 9
14 14 14 14 14 14 14 14 13 13 13 13 13 13 13 13 13 13 13 13 13 13 12 12 11 11 11 11 11 10 10 10 10 9 9 9 9 9 9 9 9 9 9
14 14 14 14 13 13 13 13 13 13 13 13 13 13 12 12 12 12 12 12 12 12 12 11 11 11 10 10 10 10 10 9 9 9 9 9 9 9 9 9 9 9 9
14 14 14 14 14 13 13 13 13 13 13 13 13 13 12 12 12 12 12 12 12 11 11 11 10 10 10 10 10 9 9 9 9 9 8 8 8 8 8 8 8 8 8
13 13 13 13 13 13 13 13 13 13 13 12 12 12 12 12 12 11 11 11 11 11 11 10 10 10 9 9 9 9 9 8 8 8 8 8 8 8 8 8 8 8 8
13 13 13 13 13 13 13 13 12 12 12 12 12 12 12 12 12 11 11 10 10 10 10 10 10 9 9 9 9 8 8 8 7 7 7 7 7 7 7 7 7 7 7
12 12 12 13 12 12 12 12 12 12 12 12 12 12 12 12 12 11 11 10 10 10 9 9 9 9 9 8 8 8 7 7 7 7 7 6 6 6 6 6 6 7 7
12 12 12 12 12 12 12 12 12 12 12 12 12 12 12 11 11 11 11 10 9 9 9 9 9 8 8 8 7 7 7 6 6 6 6 6 6 6 6 6 6 6 6
12 12 12 12 12 12 12 12 12 12 11 11 11 11 11 11 11 11 10 10 9 9 8 8 8 7 7 7 7 6 6 6 6 5 5 5 5 5 5 6 6 6 6
11 12 11 11 11 11 11 11 11 11 11 11 11 10 10 10 11 10 10 9 9 8 8 7 7 7 7 6 6 5 5 5 5 5 5 5 5 5 5 5 5 5 6
11 11 11 11 11 11 11 10 10 10 10 10 10 10 10 10 10 10 9 9 8 8 7 7 6 6 6 6 5 5 4 4 4 4 4 4 4 4 4 5 5 5 5
10 10 10 10 10 10 10 10 10 10 10 10 10 10 9 9 9 9 9 8 8 7 7 6 6 6 5 5 4 4 4 4 4 4 4 4 4 4 4 4 4 5 4
10 10 10 10 10 10 10 10 10 9 9 9 9 9 9 9 8 8 8 8 7 7 6 6 5 5 5 4 4 4 3 3 3 3 3 3 3 3 3 4 4 4 4
9 9 9 9 9 9 9 9 9 9 9 9 9 9 8 8 8 8 7 7 7 6 6 5 5 4 4 4 3 3 3 3 3 3 3 3 3 3 3 3 3 3 4
8 8 8 8 8 8 8 8 8 8 8 8 8 8 8 7 7 7 7 6 6 6 5 5 4 4 3 3 3 3 3 2 2 2 2 2 2 2 3 3 3 3 3
7 7 8 8 7 8 8 7 7 7 7 7 7 7 7 7 7 6 6 6 5 5 5 4 4 3 3 2 3 2 2 2 2 2 2 2 2 2 2 2 2 2 2
7 7 7 7 7 7 7 7 7 7 7 7 7 6 6 6 6 6 5 5 5 4 4 4 3 2 2 2 2 2 2 2 2 2 2 2 2 2 2 2 2 2 2
6 6 6 6 6 6 6 6 6 6 6 6 6 6 6 5 5 5 5 4 4 4 3 3 3 2 2 2 2 1 1 1 2 1 1 1 1 1 1 1 1 1 1
5 5 5 5 5 6 5 5 5 5 5 5 5 5 5 5 5 4 4 4 3 3 3 2 2 2 2 1 1 1 1 1 1 1 1 1 1 1 1 1 1 1 1
4 4 4 5 5 5 5 5 5 5 5 5 4 4 4 4 4 3 3 3 3 2 2 2 2 1 1 1 1 1 1 1 1 1 0 0 1 0 0 0 0 0 0
3 4 4 4 4 4 4 4 4 4 4 4 4 4 4 3 3 3 2 2 2 2 2 1 1 1 1 1 1 0 0 0 0 0 0 0 0 0 0 0 0 0 0
Wind_Speed
6 7 8 11 12 12 10 8 8 7 6 7 7 5 4 5 4 5 7 9 7 5 4 5 5 4 3 3 3 4 4 3 3 3 3 4 5 5 5 5 4 4 4
7 6 5 6 8 10 10 9 7 5 4 3 3 3 3 2 1 3 6 7 7 5 5 5 4 4 4 4 4 3 2 4 4 4 4 4 5 5 5 5 5 5 5
9 6 5 5 6 9 9 7 5 3 2 2 2 2 1 0 1 1 3 5 5 5 4 3 3 3 3 4 3 2 1 2 2 3 3 4 5 5 5 5 6 6 6
11 7 5 5 7 8 6 3 3 2 2 2 2 2 1 1 1 1 2 4 4 3 2 2 1 1 2 2 2 1 0 1 2 2 3 4 5 5 5 6 6 6 6
11 7 5 5 7 5 3 4 3 3 3 2 2 1 1 1 1 2 3 5 5 4 4 3 3 3 2 1 1 1 1 2 3 3 3 4 5 6 6 7 7 7 7
11 8 5 6 6 5 4 4 4 4 3 3 2 1 2 2 2 2 2 4 4 4 4 4 4 4 5 5 3 2 3 3 3 4 4 5 6 7 6 7 7 8 8
10 7 5 6 5 5 5 5 4 4 3 3 2 1 2 2 3 3 3 3 4 5 6 6 5 5 5 7 7 6 4 3 3 3 4 6 7 7 7 7 8 7 7
9 8 7 6 6 6 6 6 5 4 3 4 3 2 1 1 1 2 3 3 3 5 5 6 7 6 6 7 7 8 6 5 4 4 5 6 7 7 7 7 7 6 6
7 7 7 7 7 7 7 7 6 6 5 4 4 3 3 3 2 1 3 3 4 3 3 5 6 6 7 7 7 7 7 6 5 5 5 6 7 7 8 8 7 7 7
6 7 7 7 8 7 7 6 6 5 5 4 3 3 2 1 2 2 1 2 3 4 4 3 5 6 7 7 7 7 7 6 6 6 6 7 8 8 8 8 8 7 7
6 6 7 6 6 6 7 6 5 5 4 5 4 3 2 1 2 2 2 2 2 2 3 3 5 6 6 6 7 7 7 6 6 6 6 7 9 9 9 8 9 8 6
5 7 6 6 6 6 7 7 7 6 5 5 4 3 3 2 3 3 3 3 3 2 2 3 4 5 5 6 6 6 6 6 6 6 6 7 8 9 8 8 8 8 6
5 7 7 6 6 6 7 6 7 7 6 6 5 4 3 3 2 2 2 2 2 2 2 2 3 5 5 6 5 5 5 6 6 7 7 8 8 8 8 8 8 8 7
6 7 7 7 7 7 7 7 6 6 5 5 5 4 3 2 2 2 3 3 2 2 2 3 2 5 6 5 4 4 5 6 7 7 8 8 8 8 8 8 8 8 8
4 6 7 8 7 6 7 7 6 6 6 5 5 4 3 2 2 2 2 3 4 3 3 3 3 3 6 5 4 5 6 6 6 7 7 7 7 8 8 8 7 7 7
4 6 7 8 7 7 7 7 6 7 7 5 5 5 4 3 3 3 2 1 2 3 2 2 2 3 5 5 4 5 6 5 6 6 6 6 7 8 8 8 8 7 7
4 6 7 8 8 8 8 7 6 8 8 7 6 7 6 5 4 4 3 2 2 2 3 1 2 2 3 4 3 4 4 4 5 5 5 6 6 7 8 9 9 9 7
3 4 5 6 7 7 8 8 8 8 8 9 8 8 7 6 6 4 4 4 3 3 3 3 2 2 2 4 4 3 2 3 4 4 4 5 5 6 7 9 10 10 9
2 3 4 5 6 7 7 7 8 7 7 8 8 8 8 8 7 5 5 4 3 3 3 3 3 2 2 2 3 2 1 1 2 3 3 4 4 5 7 8 9 10 10
1 2 3 4 5 5 6 6 7 7 6 6 6 7 7 8 8 7 6 5 4 4 3 3 3 3 2 2 3 2 2 1 1 2 2 3 3 4 6 7 9 10 10
1 2 3 3 4 4 5 6 6 7 7 6 6 6 5 6 7 7 6 6 5 4 4 4 4 3 3 3 4 3 3 2 1 1 1 1 2 2 4 6 7 8 9
0 1 2 3 3 3 6 8 7 6 6 7 6 6 6 6 7 8 7 7 6 5 5 4 4 4 5 5 4 4 4 3 2 2 2 1 2 2 3 4 5 6 7
1 1 1 2 3 4 7 8 8 6 6 7 7 7 6 6 7 5 6 6 4 4 5 4 5 5 5 6 6 5 4 3 3 3 3 2 1 2 3 4 4 4 5
2 2 2 2 3 4 7 8 8 6 6 6 7 8 7 7 7 8 6 5 4 3 3 2 3 3 3 5 6 6 5 4 3 1 2 2 2 2 2 3 3 2 3
2 2 2 3 3 4 7 8 8 5 5 6 6 7 8 7 11 12 8 6 5 3 3 4 4 4 5 7 8 6 5 4 2 2 2 2 2 2 1 1 2 2 2
2 2 2 2 3 4 7 9 9 5 6 5 5 6 9 10 12 13 8 8 7 5 5 4 4 4 4 5 7 5 6 5 3 3 3 3 2 2 1 1 2 2 2
Wind_Direction
159 162 170 174 182 186 180 188 208 209 203 198 208 210 200 215 194 150 160 176 186 203 228 251 261 266 265 266 269 255 244 244 274 297 304 311 316 318 318 320 322 317 319
164 162 165 173 183 182 178 192 208 196 192 186 195 215 220 211 160 140 152 173 187 203 223 237 254 265 265 268 272 280 259 248 258 274 292 303 307 308 311 308 314 319 318
167 166 164 171 180 179 183 193 212 181 172 170 199 223 212 114 71 75 131 154 169 190 207 219 249 269 266 274 275 257 266 295 280 285 299 308 306 302 305 307 305 306 308
171 169 165 175 181 180 177 176 179 161 177 183 201 203 156 107 61 58 84 101 107 115 149 168 168 293 271 281 270 247 271 14 4 341 323 318 316 311 302 302 303 303 305
174 171 168 176 179 168 163 174 173 171 181 193 197 174 184 170 156 92 78 87 81 83 99 117 100 58 44 347 230 226 127 71 43 32 6 343 333 322 314 304 299 296 293
176 173 169 176 171 160 166 172 180 184 179 178 186 197 210 172 133 111 103 99 94 83 81 93 100 77 63 61 64 78 92 73 51 42 21 6 350 335 323 320 308 301 292
176 172 173 173 167 169 176 177 180 184 185 163 148 230 245 189 151 143 129 113 105 95 84 76 81 81 73 63 58 61 67 57 43 31 15 5 353 343 331 323 320 312 302
178 177 175 180 177 175 181 185 180 177 180 168 162 160 216 239 217 146 127 120 122 108 90 79 75 73 79 76 63 54 48 35 26 24 12 5 0 353 347 344 339 337 328
184 179 179 182 181 180 187 187 180 180 187 189 181 172 185 213 168 166 166 151 144 130 113 95 84 72 77 80 68 54 45 34 26 22 18 15 12 8 4 0 355 355 355
187 186 184 187 186 182 184 187 184 185 178 190 201 204 200 153 152 168 187 167 144 132 129 114 100 85 77 75 70 55 45 38 27 18 19 20 16 12 10 7 4 3 3
185 188 188 185 185 181 178 174 172 179 182 184 185 187 205 212 192 175 197 188 171 140 125 116 109 100 90 85 73 60 51 38 27 21 20 21 19 12 6 6 5 360 0
188 189 190 185 182 183 181 177 177 180 188 185 181 176 171 177 197 192 202 193 180 165 130 111 112 109 101 92 82 69 55 37 29 23 25 31 24 15 3 358 359 358 354
197 195 190 185 182 188 183 176 177 180 183 182 187 190 185 191 166 158 169 187 164 165 152 135 121 115 109 102 91 78 64 50 46 41 39 35 27 19 8 359 358 2 2
200 193 190 189 184 181 180 175 180 179 175 181 185 179 170 169 148 156 167 161 177 200 184 174 131 126 119 113 107 91 85 69 61 54 46 36 29 21 12 7 8 8 8
199 187 188 189 184 180 179 174 177 177 170 175 173 164 160 149 129 132 137 153 169 196 211 167 143 133 126 122 121 106 101 86 71 61 56 45 35 29 24 23 20 19 18
196 191 191 188 180 179 178 175 178 176 170 171 164 158 158 151 145 140 141 154 162 173 193 152 141 137 128 127 128 111 107 100 86 70 64 58 48 40 37 36 31 29 28
193 193 193 188 184 184 181 174 176 175 172 168 166 167 168 161 161 159 159 168 177 169 196 160 101 114 128 138 126 114 109 102 101 81 72 67 58 49 45 43 39 37 36
190 190 185 190 189 186 183 180 176 172 174 175 173 170 171 166 167 166 169 179 186 181 178 184 156 145 141 149 139 131 116 108 109 95 78 75 70 61 57 52 46 43 43
176 181 182 189 189 186 184 179 174 175 175 174 172 174 173 170 178 173 172 180 181 174 163 167 167 146 129 132 128 123 136 113 116 109 88 81 79 75 67 58 51 47 47
177 181 180 182 179 175 175 172 166 165 167 164 162 163 165 174 178 173 176 178 172 168 162 165 167 157 146 141 145 163 185 188 177 140 115 98 99 93 78 66 57 51 49
186 186 176 171 170 172 176 171 166 164 162 156 152 151 155 160 165 169 173 170 167 173 172 175 179 167 167 162 187 178 180 169 186 172 141 151 124 92 77 71 65 59 55
162 178 180 174 175 186 174 173 167 164 162 161 158 150 149 148 157 166 166 166 170 175 182 182 189 191 196 189 173 166 154 150 211 211 159 195 138 108 95 83 74 70 66
305 218 196 175 179 178 177 178 177 169 165 167 165 163 166 169 165 158 161 161 164 170 174 176 188 199 195 188 167 165 170 171 192 179 142 177 153 139 126 106 93 85 79
290 257 237 204 193 194 185 184 178 167 165 171 174 173 170 169 173 165 159 156 161 157 160 158 176 195 183 169 167 168 162 127 87 90 130 162 177 163 138 124 122 110 103
297 280 250 218 206 202 191 187 180 166 172 178 180 178 175 177 181 175 164 162 161 158 142 138 138 140 144 152 148 131 136 134 153 201 182 149 156 136 135 160 165 149 133
280 278 266 239 221 214 201 196 189 181 182 183 182 183 186 186 187 183 174 171 178 178 153 141 127 124 117 137 149 151 157 156 152 187 193 153 145 132 160 223 182 177 172
Height
1527 1530 1533 1536 1538 1541 1543 1545 1547 1549 1551 1553 1554 1555 1556 1557 1557 1557 1557 1556 1556 1555 1555 1555 1554 1554 1553 1553 1552 1552 1552 1551 1550 1550 1549 1548 1547 1546 1545 1544 1543 1542 1542
1526 1529 1532 1534 1537 1540 1542 1544 1546 1549 1550 1552 1553 1554 1555 1556 1556 1556 1555 1555 1554 1554 1553 1553 1552 1552 1551 1551 1551 1550 1550 1549 1549 1548 1547 1546 1545 1544 1543 1543 1542 1541 1541
1524 1527 1530 1532 1535 1538 1540 1542 1545 1547 1549 1550 1551 1552 1553 1554 1554 1554 1554 1553 1552 1551 1551 1551 1550 1550 1549 1549 1549 1548 1548 1548 1547 1546 1545 1545 1544 1543 1542 1541 1540 1540 1539
1521 1524 1527 1530 1533 1536 1538 1540 1542 1544 1546 1547 1549 1550 1551 1551 1551 1551 1551 1551 1550 1549 1549 1548 1548 1548 1547 1547 1546 1546 1546 1545 1545 1544 1544 1543 1542 1541 1539 1538 1538 1537 1537
1518 1521 1524 1527 1530 1533 1535 1537 1539 1541 1543 1545 1546 1547 1548 1548 1549 1549 1548 1548 1548 1547 1547 1546 1546 1545 1545 1545 1544 1544 1544 1543 1543 1542 1541 1540 1539 1538 1537 1536 1535 1535 1534
1515 1518 1521 1524 1527 1529 1532 1534 1536 1538 1540 1542 1543 1544 1545 1546 1546 1545 1545 1545 1545 1545 1544 1544 1543 1543 1543 1542 1542 1542 1541 1541 1541 1540 1539 1538 1537 1536 1535 1534 1533 1532 1531
1511 1514 1517 1520 1523 1525 1528 1530 1533 1535 1537 1539 1540 1541 1542 1543 1542 1542 1542 1542 1542 1542 1541 1541 1541 1541 1540 1540 1540 1540 1539 1539 1538 1538 1537 1536 1535 1534 1532 1531 1530 1529 1529
1506 1510 1512 1515 1518 1521 1524 1526 1528 1530 1532 1535 1536 1538 1539 1540 1539 1539 1539 1539 1539 1539 1539 1538 1538 1538 1538 1537 1537 1537 1537 1536 1536 1535 1534 1533 1532 1531 1529 1528 1527 1527 1526
1502 1505 1508 1511 1514 1516 1519 1521 1524 1526 1528 1531 1532 1534 1535 1535 1536 1536 1536 1536 1536 1536 1536 1535 1535 1535 1535 1534 1534 1534 1534 1533 1533 1532 1531 1530 1529 1528 1527 1526 1525 1524 1523
1497 1500 1503 1506 1508 1510 1513 1516 1519 1521 1524 1525 1528 1529 1532 1532 1533 1532 1533 1533 1533 1533 1532 1532 1532 1532 1531 1531 1531 1531 1531 1530 1530 1529 1528 1527 1526 1525 1524 1523 1522 1521 1520
1493 1496 1498 1501 1503 1505 1508 1511 1513 1516 1518 1520 1522 1524 1526 1527 1528 1529 1529 1529 1529 1529 1529 1529 1529 1528 1528 1527 1527 1527 1527 1527 1526 1525 1525 1524 1522 1521 1520 1519 1518 1517 1516
1488 1490 1493 1495 1498 1500 1503 1505 1508 1510 1513 1515 1517 1518 1520 1522 1522 1523 1524 1525 1526 1525 1525 1525 1525 1524 1524 1524 1524 1523 1523 1523 1522 1522 1521 1519 1518 1517 1516 1515 1514 1514 1513
1483 1485 1488 1490 1492 1495 1497 1500 1502 1504 1507 1510 1511 1513 1514 1516 1518 1519 1520 1521 1521 1521 1521 1521 1521 1520 1520 1519 1519 1519 1519 1519 1519 1518 1517 1516 1515 1513 1513 1512 1511 1510 1510
1478 1481 1482 1485 1487 1489 1491 1494 1497 1499 1502 1504 1506 1507 1508 1510 1512 1514 1515 1516 1516 1517 1517 1517 1516 1516 1516 1516 1516 1516 1516 1516 1515 1515 1514 1513 1511 1510 1509 1508 1508 1507 1507
1473 1475 1478 1479 1481 1483 1485 1487 1490 1493 1495 1497 1500 1501 1503 1504 1506 1508 1510 1511 1512 1512 1512 1512 1512 1512 1513 1513 1512 1512 1512 1512 1512 1511 1510 1509 1508 1507 1506 1505 1505 1504 1504
1468 1470 1472 1473 1475 1478 1480 1481 1484 1487 1489 1492 1494 1496 1497 1499 1501 1502 1504 1505 1506 1507 1507 1507 1507 1508 1509 1509 1509 1509 1508 1509 1508 1508 1507 1506 1506 1505 1504 1503 1503 1502 1502
1462 1465 1466 1468 1470 1472 1474 1476 1478 1481 1483 1486 1488 1491 1492 1494 1495 1497 1498 1500 1501 1502 1502 1503 1504 1504 1505 1505 1505 1505 1505 1505 1505 1505 1504 1504 1503 1502 1501 1501 1500 1500 1500
1458 1460 1461 1463 1465 1466 1468 1470 1473 1475 1477 1479 1482 1484 1486 1488 1490 1491 1493 1494 1495 1496 1498 1498 1499 1499 1500 1501 1502 1502 1502 1502 1502 1502 1502 1501 1501 1500 1499 1499 1499 1498 1498
1454 1455 1457 1458 1460 1461 1463 1465 1467 1469 1471 1473 1476 1478 1480 1483 1484 1486 1487 1489 1490 1491 1492 1493 1494 1495 1495 1496 1497 1498 1498 1499 1499 1499 1499 1499 1499 1499 1498 1497 1497 1497 1496
1450 1451 1452 1454 1455 1456 1458 1460 1461 1464 1466 1468 1470 1472 1474 1477 1478 1480 1482 1483 1485 1485 1486 1487 1488 1489 1490 1492 1493 1494 1495 1496 1496 1496 1496 1496 1497 1496 1497 1496 1496 1496 1495
1447 1448 1449 1450 1451 1452 1453 1455 1457 1459 1461 1463 1465 1467 1469 1472 1473 1475 1476 1477 1479 1480 1481 1482 1483 1484 1485 1487 1488 1489 1491 1492 1492 1493 1493 1494 1494 1494 1495 1495 1495 1495 1495
1444 1444 1445 1445 1446 1448 1449 1451 1453 1455 1456 1458 1460 1462 1464 1467 1468 1470 1471 1472 1474 1475 1476 1477 1478 1479 1481 1482 1484 1485 1487 1488 1489 1490 1490 1491 1491 1492 1493 1493 1493 1494 1494
1441 1441 1441 1442 1442 1444 1445 1447 1448 1450 1452 1453 1455 1457 1459 1461 1463 1465 1466 1467 1468 1469 1471 1473 1473 1475 1476 1478 1479 1481 1482 1484 1485 1487 1488 1488 1489 1489 1490 1491 1491 1492 1492
1438 1438 1437 1438 1439 1440 1441 1443 1444 1445 1447 1449 1450 1452 1454 1456 1458 1460 1461 1462 1463 1465 1466 1467 1470 1471 1472 1474 1475 1477 1479 1480 1482 1484 1485 1485 1486 1487 1488 1489 1489 1490 1491
1435 1434 1434 1434 1435 1436 1437 1438 1439 1441 1442 1444 1445 1447 1449 1451 1453 1454 1456 1457 1459 1460 1461 1463 1465 1467 1468 1470 1471 1473 1474 1476 1478 1480 1481 1483 1483 1484 1486 1487 1487 1488 1489
1431 1431 1430 1431 1431 1432 1433 1434 1435 1436 1437 1439 1441 1442 1444 1446 1448 1449 1451 1452 1454 1456 1457 1459 1460 1462 1464 1466 1467 1469 1471 1473 1474 1476 1477 1479 1480 1482 1483 1484 1485 1486 1487